ProjectID,Date,Electric Generation,Electric Utility Import,Facility Electric Load
,YYYY-MM-DD,kW,kW,kW
451,2017-06-01,0.0,0.0,0.0
451,2017-06-02,0.0,0.0,0.0
451,2017-06-03,0.0,0.0,0.0
451,2017-06-04,0.0,0.0,0.0
451,2017-06-05,0.0,0.0,0.0
451,2017-06-06,0.0,0.0,0.0
451,2017-06-07,0.0,0.0,0.0
451,2017-06-08,0.0,0.0,0.0
451,2017-06-09,0.0,0.0,0.0
451,2017-06-10,0.0,0.0,0.0
451,2017-06-11,0.0,0.0,0.0
451,2017-06-12,0.0,0.0,0.0
451,2017-06-13,26.678458333333335,0.0,26.678458333333335
451,2017-06-14,59.819083333333346,0.0,59.819083333333346
451,2017-06-15,1.2552083333333333,0.0,1.2552083333333333
451,2017-06-16,0.0,0.0,0.0
451,2017-06-17,0.0,0.0,0.0
451,2017-06-18,0.0,0.0,0.0
451,2017-06-19,0.0,0.0,0.0
451,2017-06-20,-3.855541666666666,0.0,-3.855541666666666
451,2017-06-21,14.200000000000001,0.0,14.200000000000001
451,2017-06-22,52.70558333333335,0.0,52.70558333333335
451,2017-06-23,54.679875,0.0,54.679875
451,2017-06-24,53.94679166666668,0.0,53.94679166666668
451,2017-06-25,55.404791666666675,0.0,55.404791666666675
451,2017-06-26,52.883166666666675,0.0,52.883166666666675
451,2017-06-27,45.61025,0.0,45.61025
451,2017-06-28,28.277083333333326,0.0,28.277083333333326
451,2017-06-29,46.47445833333334,0.0,46.47445833333334
451,2017-06-30,41.71812499999999,0.0,41.71812499999999
451,2017-07-01,44.678958333333334,0.0,44.678958333333334
451,2017-07-02,29.621958333333325,0.0,29.621958333333325
451,2017-07-03,41.45979166666666,0.0,41.45979166666666
451,2017-07-04,47.562083333333334,0.0,47.562083333333334
451,2017-07-05,48.49370833333333,0.0,48.49370833333333
451,2017-07-06,43.5545,0.0,43.5545
451,2017-07-07,55.95787500000001,0.0,55.95787500000001
451,2017-07-08,55.23554166666665,0.0,55.23554166666665
451,2017-07-09,54.77487499999999,0.0,54.77487499999999
451,2017-07-10,54.75637499999999,0.0,54.75637499999999
451,2017-07-11,56.008708333333324,0.0,56.008708333333324
451,2017-07-12,55.13750000000001,0.0,55.13750000000001
451,2017-07-13,55.166125000000015,0.0,55.166125000000015
451,2017-07-14,51.87583333333333,0.0,51.87583333333333
451,2017-07-15,56.994625000000006,0.0,56.994625000000006
451,2017-07-16,55.71766666666668,0.0,55.71766666666668
451,2017-07-17,50.519958333333335,0.0,50.519958333333335
451,2017-07-18,50.917625000000015,0.0,50.917625000000015
451,2017-07-19,49.63816666666667,0.0,49.63816666666667
451,2017-07-20,49.242708333333326,0.0,49.242708333333326
451,2017-07-21,52.16224999999999,0.0,52.16224999999999
451,2017-07-22,52.73554166666667,0.0,52.73554166666667
451,2017-07-23,53.937208333333324,0.0,53.937208333333324
451,2017-07-24,55.81549999999999,0.0,55.81549999999999
451,2017-07-25,58.141875,0.0,58.141875
451,2017-07-26,57.49208333333333,0.0,57.49208333333333
451,2017-07-27,57.100666666666655,0.0,57.100666666666655
451,2017-07-28,55.27195833333334,0.0,55.27195833333334
451,2017-07-29,32.989625,0.0,32.989625
451,2017-07-30,26.97808333333333,0.0,26.97808333333333
451,2017-07-31,26.780250000000006,0.0,26.780250000000006
451,2017-08-01,26.51908333333333,0.0,26.51908333333333
451,2017-08-02,36.20708333333334,0.0,36.20708333333334
451,2017-08-03,56.47249999999999,0.0,56.47249999999999
451,2017-08-04,55.01808333333333,0.0,55.01808333333333
451,2017-08-05,56.787416666666665,0.0,56.787416666666665
451,2017-08-06,55.546749999999996,0.0,55.546749999999996
451,2017-08-07,56.67958333333333,0.0,56.67958333333333
451,2017-08-08,56.421458333333334,0.0,56.421458333333334
451,2017-08-09,55.75508333333334,0.0,55.75508333333334
451,2017-08-10,55.7485,0.0,55.7485
451,2017-08-11,56.19395833333334,0.0,56.19395833333334
451,2017-08-12,56.38766666666667,0.0,56.38766666666667
451,2017-08-13,55.86733333333333,0.0,55.86733333333333
451,2017-08-14,55.80779166666668,0.0,55.80779166666668
451,2017-08-15,57.01675,0.0,57.01675
451,2017-08-16,55.409375000000004,0.0,55.409375000000004
451,2017-08-17,57.510250000000006,0.0,57.510250000000006
451,2017-08-18,57.11770833333333,0.0,57.11770833333333
451,2017-08-19,57.44941666666666,0.0,57.44941666666666
451,2017-08-20,57.163541666666674,0.0,57.163541666666674
451,2017-08-21,57.34066666666667,0.0,57.34066666666667
451,2017-08-22,57.035666666666664,0.0,57.035666666666664
451,2017-08-23,57.61958333333333,0.0,57.61958333333333
451,2017-08-24,56.59820833333334,0.0,56.59820833333334
451,2017-08-25,56.650208333333325,0.0,56.650208333333325
451,2017-08-26,56.974833333333315,0.0,56.974833333333315
451,2017-08-27,57.333124999999995,0.0,57.333124999999995
451,2017-08-28,57.11225000000001,0.0,57.11225000000001
451,2017-08-29,54.952958333333335,0.0,54.952958333333335
451,2017-08-30,43.663041666666665,0.0,43.663041666666665
451,2017-08-31,55.891083333333334,0.0,55.891083333333334
451,2017-09-01,37.03375,0.0,37.03375
451,2017-09-02,44.018458333333335,0.0,44.018458333333335
451,2017-09-03,44.33354166666667,0.0,44.33354166666667
451,2017-09-04,50.629458333333325,0.0,50.629458333333325
451,2017-09-05,57.399333333333324,0.0,57.399333333333324
451,2017-09-06,56.8195,0.0,56.8195
451,2017-09-07,48.00445833333334,0.0,48.00445833333334
451,2017-09-08,44.13787499999999,0.0,44.13787499999999
451,2017-09-09,41.683749999999996,0.0,41.683749999999996
451,2017-09-10,43.4015,0.0,43.4015
451,2017-09-11,44.25629166666667,0.0,44.25629166666667
451,2017-09-12,2.3786666666666667,0.0,2.3786666666666667
451,2017-09-13,52.32758333333334,0.0,52.32758333333334
451,2017-09-14,56.071708333333326,0.0,56.071708333333326
451,2017-09-15,56.31045833333332,0.0,56.31045833333332
451,2017-09-16,55.49266666666667,0.0,55.49266666666667
451,2017-09-17,56.489374999999995,0.0,56.489374999999995
451,2017-09-18,55.49400000000001,0.0,55.49400000000001
451,2017-09-19,53.268125,0.0,53.268125
451,2017-09-20,53.436291666666655,0.0,53.436291666666655
451,2017-09-21,56.148374999999994,36.695875,92.84424999999999
451,2017-09-22,54.83841666666668,34.47654166666667,89.31495833333335
451,2017-09-23,55.185375,42.17183333333333,97.35720833333333
451,2017-09-24,55.66350000000002,65.98904166666667,121.65254166666668
451,2017-09-25,56.105291666666666,65.08979166666667,121.19508333333334
451,2017-09-26,57.42820833333334,48.975,106.40320833333334
451,2017-09-27,55.96983333333333,58.418375,114.38820833333332
451,2017-09-28,57.816250000000004,47.80608333333333,105.62233333333333
451,2017-09-29,46.74129166666666,24.573458333333335,71.31475
451,2017-09-30,42.61000000000001,24.139458333333334,66.74945833333334
451,2017-10-01,43.39170833333335,23.96525,67.35695833333335
451,2017-10-02,43.42804166666667,23.622625,67.05066666666667
451,2017-10-03,41.94866666666666,23.765208333333334,65.713875
451,2017-10-04,41.43220833333333,23.817791666666665,65.25
451,2017-10-05,48.28345833333333,26.500249999999998,74.78370833333332
451,2017-10-06,53.98974999999999,28.539208333333335,82.52895833333332
451,2017-10-07,55.712500000000006,36.59741666666667,92.30991666666668
451,2017-10-08,57.29608333333334,42.09383333333333,99.38991666666666
451,2017-10-09,57.63875000000001,43.30766666666667,100.94641666666668
451,2017-10-10,56.34716666666667,35.99366666666666,92.34083333333334
451,2017-10-11,54.122375,29.822041666666667,83.94441666666667
451,2017-10-12,45.45104166666666,24.49229166666667,69.94333333333333
451,2017-10-13,41.24699999999999,23.632166666666667,64.87916666666666
451,2017-10-14,46.14179166666667,23.833333333333332,69.975125
451,2017-10-15,51.14383333333334,25.677666666666667,76.82150000000001
451,2017-10-16,45.131,25.52433333333333,70.65533333333333
451,2017-10-17,45.24370833333332,24.3305,69.57420833333333
451,2017-10-18,41.480291666666666,23.593666666666667,65.07395833333334
451,2017-10-19,42.695916666666655,23.726249999999997,66.42216666666666
451,2017-10-20,39.36275000000001,23.543083333333332,62.90583333333335
451,2017-10-21,43.0395,23.781541666666666,66.82104166666666
451,2017-10-22,44.92941666666667,24.167083333333334,69.0965
451,2017-10-23,46.19916666666666,24.591958333333334,70.791125
451,2017-10-24,48.49333333333333,25.513666666666666,74.007
451,2017-10-25,46.063333333333325,25.478125000000002,71.54145833333332
451,2017-10-26,41.18833333333334,23.704583333333332,64.89291666666668
451,2017-10-27,38.48883333333333,23.729416666666665,62.21825
451,2017-10-28,42.78074999999999,24.12108333333333,66.90183333333331
451,2017-10-29,46.92529166666666,24.422833333333333,71.348125
451,2017-10-30,41.48558333333334,24.037791666666667,65.523375
451,2017-10-31,43.26841666666667,24.916291666666666,68.18470833333333
451,2017-11-01,42.663291666666666,23.893666666666665,66.55695833333333
451,2017-11-02,42.16195833333334,23.809375,65.97133333333333
451,2017-11-03,41.323874999999994,24.850333333333335,66.17420833333333
451,2017-11-04,44.38041666666667,24.356666666666666,68.73708333333333
451,2017-11-05,43.80133333333333,23.149208333333334,66.95054166666667
451,2017-11-06,32.738625000000006,37.806333333333335,70.54495833333334
451,2017-11-07,40.79445833333334,28.48091666666667,69.27537500000001
451,2017-11-08,44.38329166666667,24.030874999999998,68.41416666666667
451,2017-11-09,43.89479166666666,24.296833333333336,68.191625
451,2017-11-10,45.53016666666667,24.2865,69.81666666666668
451,2017-11-11,36.915,38.10245833333333,75.01745833333334
451,2017-11-12,28.55208333333333,42.66425,71.21633333333332
451,2017-11-13,40.74041666666666,29.007125000000002,69.74754166666666
451,2017-11-14,43.89541666666667,24.294666666666668,68.19008333333333
451,2017-11-15,40.36387500000001,30.461916666666667,70.82579166666667
451,2017-11-16,29.402583333333336,39.48158333333333,68.88416666666667
451,2017-11-17,38.02591666666667,27.26725,65.29316666666666
451,2017-11-18,49.56462500000001,24.538541666666664,74.10316666666667
451,2017-11-19,40.979958333333336,31.676374999999997,72.65633333333334
451,2017-11-20,29.521083333333337,41.921458333333334,71.44254166666667
451,2017-11-21,32.9185,32.16983333333334,65.08833333333334
451,2017-11-22,28.92754166666667,38.26983333333333,67.197375
451,2017-11-23,28.37754166666667,47.33154166666667,75.70908333333334
451,2017-11-24,29.94033333333334,42.00120833333333,71.94154166666667
451,2017-11-25,28.455,41.18841666666667,69.64341666666667
451,2017-11-26,28.32354166666667,43.148666666666664,71.47220833333333
451,2017-11-27,28.39804166666667,39.82629166666667,68.22433333333333
451,2017-11-28,1.1885416666666666,1.7139166666666668,2.9024583333333336
451,2017-11-29,26.67383333333333,35.176375,61.85020833333333
451,2017-11-30,27.855124999999997,40.12141666666667,67.97654166666666
451,2017-12-01,27.919833333333333,40.069541666666666,67.989375
451,2017-12-02,28.17341666666667,41.293166666666664,69.46658333333333
451,2017-12-03,27.937041666666662,41.522375000000004,69.45941666666667
451,2017-12-04,28.995583333333332,40.175041666666665,69.170625
451,2017-12-05,28.52570833333333,41.29716666666666,69.822875
451,2017-12-06,31.07466666666667,38.46908333333334,69.54375
451,2017-12-07,28.52404166666668,40.663041666666665,69.18708333333335
451,2017-12-08,33.792541666666665,36.28304166666667,70.07558333333333
451,2017-12-09,28.711583333333333,47.80725,76.51883333333333
451,2017-12-10,29.173708333333337,47.332541666666664,76.50625
451,2017-12-11,32.89158333333332,38.69858333333333,71.59016666666665
451,2017-12-12,28.875875000000004,41.56225,70.438125
451,2017-12-13,39.356,36.58704166666667,75.94304166666667
451,2017-12-14,34.950250000000004,44.776250000000005,79.72650000000002
451,2017-12-15,29.459874999999997,52.336958333333335,81.79683333333332
451,2017-12-16,29.142875,58.36291666666667,87.50579166666667
451,2017-12-17,28.690375000000007,53.25416666666666,81.94454166666667
451,2017-12-18,43.70779166666666,29.904916666666665,73.61270833333333
451,2017-12-19,45.04754166666667,24.47729166666667,69.52483333333333
451,2017-12-20,40.66475,29.708624999999998,70.373375
451,2017-12-21,33.89591666666667,36.966125,70.86204166666667
451,2017-12-22,28.365791666666667,44.345666666666666,72.71145833333333
451,2017-12-23,30.464541666666666,42.39241666666667,72.85695833333334
451,2017-12-24,28.085916666666662,45.39633333333333,73.48225
451,2017-12-25,28.923708333333334,46.29745833333333,75.22116666666666
451,2017-12-26,29.060208333333335,47.20808333333333,76.26829166666667
451,2017-12-27,28.69916666666666,51.54929166666667,80.24845833333333
451,2017-12-28,28.852791666666672,60.035041666666665,88.88783333333333
451,2017-12-29,28.896416666666664,65.095,93.99141666666667
451,2017-12-30,28.934083333333337,66.21616666666667,95.15025
451,2017-12-31,28.926375000000004,70.54979166666666,99.47616666666667
451,2018-01-01,28.947,70.96354166666667,99.91054166666667
451,2018-01-02,28.934499999999996,70.404625,99.339125
451,2018-01-03,30.57387500000001,60.114625,90.6885
451,2018-01-04,27.96966666666667,70.31504166666666,98.28470833333333
451,2018-01-05,27.68745833333333,66.811625,94.49908333333333
451,2018-01-06,27.699875000000002,77.92054166666667,105.62041666666667
451,2018-01-07,27.481583333333337,79.846625,107.32820833333334
451,2018-01-08,27.706666666666663,67.70216666666667,95.40883333333333
451,2018-01-09,28.68375,51.37954166666666,80.06329166666666
451,2018-01-10,28.844291666666667,44.65808333333334,73.502375
451,2018-01-11,26.14525,39.68666666666667,65.83191666666667
451,2018-01-12,28.27425,41.84308333333333,70.11733333333333
451,2018-01-13,28.968249999999998,43.96725,72.93549999999999
451,2018-01-14,37.86475,44.12016666666667,81.98491666666666
451,2018-01-15,36.675375,49.94116666666667,86.61654166666668
451,2018-01-16,28.981666666666673,50.942625,79.92429166666668
451,2018-01-17,28.789291666666667,46.386833333333335,75.176125
451,2018-01-18,30.73479166666667,48.11929166666667,78.85408333333334
451,2018-01-19,29.385625000000005,44.48620833333334,73.87183333333334
451,2018-01-20,28.693916666666667,41.54725,70.24116666666666
451,2018-01-21,28.301291666666668,38.85491666666667,67.15620833333334
451,2018-01-22,14.402374999999997,2.260125,16.662499999999998
451,2018-01-23,32.21329166666666,0.0,32.21329166666666
451,2018-01-24,34.0405,0.0,34.0405
451,2018-01-25,36.878083333333336,0.0,36.878083333333336
451,2018-01-26,36.16499999999999,0.0,36.16499999999999
451,2018-01-27,28.698375000000002,0.0,28.698375000000002
451,2018-01-28,40.241458333333334,0.0,40.241458333333334
451,2018-01-29,41.44658333333333,0.0,41.44658333333333
451,2018-01-30,30.069541666666677,0.0,30.069541666666677
451,2018-01-31,33.44583333333333,0.0,33.44583333333333
451,2018-02-01,32.98158333333333,0.0,32.98158333333333
451,2018-02-02,31.266166666666667,0.0,31.266166666666667
451,2018-02-03,29.57829166666666,0.0,29.57829166666666
451,2018-02-04,28.85841666666667,0.0,28.85841666666667
451,2018-02-05,33.839375,0.0,33.839375
451,2018-02-06,33.32433333333333,0.0,33.32433333333333
451,2018-02-07,34.632625,0.0,34.632625
451,2018-02-08,34.007375,0.0,34.007375
451,2018-02-09,31.861708333333336,0.0,31.861708333333336
451,2018-02-10,32.801874999999995,0.0,32.801874999999995
451,2018-02-11,31.63216666666666,0.0,31.63216666666666
451,2018-02-12,30.362458333333333,0.0,30.362458333333333
451,2018-02-13,31.90379166666666,0.0,31.90379166666666
451,2018-02-14,31.02695833333333,0.0,31.02695833333333
451,2018-02-15,31.526833333333332,0.0,31.526833333333332
451,2018-02-16,33.09683333333333,0.0,33.09683333333333
451,2018-02-17,33.49995833333333,0.0,33.49995833333333
451,2018-02-18,34.419500000000006,0.0,34.419500000000006
451,2018-02-19,32.807833333333335,0.0,32.807833333333335
451,2018-02-20,32.91291666666667,0.0,32.91291666666667
451,2018-02-21,32.39720833333333,0.0,32.39720833333333
451,2018-02-22,32.07545833333334,0.0,32.07545833333334
451,2018-02-23,31.909000000000002,0.0,31.909000000000002
451,2018-02-24,31.79404166666667,0.0,31.79404166666667
451,2018-02-25,34.826,0.0,34.826
451,2018-02-26,31.392666666666667,0.0,31.392666666666667
451,2018-02-27,30.623375,0.0,30.623375
451,2018-02-28,30.206291666666672,0.0,30.206291666666672
451,2018-03-01,1.3004583333333333,0.0,1.3004583333333333
451,2018-03-02,26.95295833333333,0.0,26.95295833333333
451,2018-03-03,1.1953333333333334,0.0,1.1953333333333334
451,2018-03-04,0.0,0.0,0.0
451,2018-03-05,29.60358333333333,0.0,29.60358333333333
451,2018-03-06,32.141458333333325,0.0,32.141458333333325
451,2018-03-07,32.72745833333333,0.0,32.72745833333333
451,2018-03-08,28.471750000000004,0.0,28.471750000000004
451,2018-03-09,31.996624999999998,0.0,31.996624999999998
451,2018-03-10,33.36216666666667,0.0,33.36216666666667
451,2018-03-11,32.34737499999999,0.0,32.34737499999999
451,2018-03-12,31.275916666666664,0.0,31.275916666666664
451,2018-03-13,32.869,0.0,32.869
451,2018-03-14,33.123166666666656,0.0,33.123166666666656
451,2018-03-15,31.71433333333333,0.0,31.71433333333333
451,2018-03-16,31.190375,0.0,31.190375
451,2018-03-17,31.514208333333332,0.0,31.514208333333332
451,2018-03-18,33.043458333333334,0.0,33.043458333333334
451,2018-03-19,30.584625,0.0,30.584625
451,2018-03-20,31.30125,0.0,31.30125
451,2018-03-21,33.380708333333345,0.0,33.380708333333345
451,2018-03-22,30.547375,0.0,30.547375
451,2018-03-23,31.128749999999993,0.0,31.128749999999993
451,2018-03-24,31.957624999999993,0.0,31.957624999999993
451,2018-03-25,28.41383333333334,0.0,28.41383333333334
451,2018-03-26,30.320166666666665,0.0,30.320166666666665
451,2018-03-27,30.866375,0.0,30.866375
451,2018-03-28,30.69283333333333,0.0,30.69283333333333
451,2018-03-29,29.87429166666666,0.0,29.87429166666666
451,2018-03-30,30.815541666666658,0.0,30.815541666666658
451,2018-03-31,31.932458333333333,0.0,31.932458333333333
451,2018-04-01,31.452208333333328,0.0,31.452208333333328
451,2018-04-02,31.191875000000007,0.0,31.191875000000007
451,2018-04-03,31.94645833333333,0.0,31.94645833333333
451,2018-04-04,31.118750000000006,0.0,31.118750000000006
451,2018-04-05,31.518708333333326,0.0,31.518708333333326
451,2018-04-06,31.192500000000006,0.0,31.192500000000006
451,2018-04-07,5.950625000000001,0.0,5.950625000000001
451,2018-04-08,-1.8453333333333333,0.0,-1.8453333333333333
451,2018-04-09,14.479124999999998,0.0,14.479124999999998
451,2018-04-10,30.56245833333333,0.0,30.56245833333333
451,2018-04-11,30.216291666666667,0.0,30.216291666666667
451,2018-04-12,30.017791666666664,0.0,30.017791666666664
451,2018-04-13,29.77991666666667,0.0,29.77991666666667
451,2018-04-14,31.163624999999993,0.0,31.163624999999993
451,2018-04-15,31.376291666666663,0.0,31.376291666666663
451,2018-04-16,30.96304166666667,0.0,30.96304166666667
451,2018-04-17,31.982124999999996,0.0,31.982124999999996
451,2018-04-18,31.376833333333337,0.0,31.376833333333337
451,2018-04-19,31.35025,0.0,31.35025
451,2018-04-20,29.75129166666666,0.0,29.75129166666666
451,2018-04-21,29.697125,0.0,29.697125
451,2018-04-22,31.07604166666667,0.0,31.07604166666667
451,2018-04-23,28.880499999999994,0.0,28.880499999999994
451,2018-04-24,29.510291666666674,0.0,29.510291666666674
451,2018-04-25,30.10429166666667,0.0,30.10429166666667
451,2018-04-26,30.558750000000003,0.0,30.558750000000003
451,2018-04-27,30.85029166666666,0.0,30.85029166666666
451,2018-04-28,31.417499999999993,0.0,31.417499999999993
451,2018-04-29,30.953375000000005,0.0,30.953375000000005
451,2018-04-30,30.70575,0.0,30.70575
451,2018-05-01,30.334499999999995,0.0,30.334499999999995
451,2018-05-02,27.215666666666667,0.0,27.215666666666667
451,2018-05-03,27.189624999999996,0.0,27.189624999999996
451,2018-05-04,27.141333333333336,0.0,27.141333333333336
451,2018-05-05,27.513499999999993,0.0,27.513499999999993
451,2018-05-06,27.884666666666664,0.0,27.884666666666664
451,2018-05-07,27.864166666666662,0.0,27.864166666666662
451,2018-05-08,14.804958333333337,13.836166666666665,28.641125000000002
451,2018-05-09,1.179375,0.0,1.179375
451,2018-05-10,0.0,0.0,0.0
451,2018-05-11,0.0,0.0,0.0
451,2018-05-12,0.0,0.0,0.0
451,2018-05-13,0.0,0.0,0.0
451,2018-05-14,17.552541666666666,0.0,17.552541666666666
451,2018-05-15,31.735375,0.0,31.735375
451,2018-05-16,33.73979166666666,0.0,33.73979166666666
451,2018-05-17,32.84333333333333,0.0,32.84333333333333
451,2018-05-18,27.94783333333333,0.0,27.94783333333333
451,2018-05-19,30.959833333333332,0.0,30.959833333333332
451,2018-05-20,29.77891666666667,0.0,29.77891666666667
451,2018-05-21,30.794750000000004,0.0,30.794750000000004
451,2018-05-22,28.6815,0.0,28.6815
451,2018-05-23,30.331375000000005,0.0,30.331375000000005
451,2018-05-24,28.51879166666667,0.0,28.51879166666667
451,2018-05-25,27.093208333333337,0.0,27.093208333333337
451,2018-05-26,26.608749999999997,0.0,26.608749999999997
451,2018-05-27,-2.7897916666666673,0.0,-2.7897916666666673
451,2018-05-28,-2.605958333333333,0.0,-2.605958333333333
451,2018-05-29,-3.1350833333333337,0.0,-3.1350833333333337
451,2018-05-30,7.953500000000001,0.0,7.953500000000001
451,2018-05-31,32.31208333333333,0.0,32.31208333333333
451,2018-06-01,29.995541666666668,0.0,29.995541666666668
451,2018-06-02,28.005541666666673,0.0,28.005541666666673
451,2018-06-03,28.990249999999993,0.0,28.990249999999993
451,2018-06-04,29.625500000000002,0.0,29.625500000000002
451,2018-06-05,29.43008333333333,0.0,29.43008333333333
451,2018-06-06,28.633374999999997,0.0,28.633374999999997
451,2018-06-07,29.027125,0.0,29.027125
451,2018-06-08,29.27270833333333,0.0,29.27270833333333
451,2018-06-09,28.744541666666674,0.0,28.744541666666674
451,2018-06-10,29.020166666666665,0.0,29.020166666666665
451,2018-06-11,29.437749999999998,0.0,29.437749999999998
451,2018-06-12,29.594499999999993,0.0,29.594499999999993
451,2018-06-13,29.25620833333333,0.0,29.25620833333333
451,2018-06-14,13.388916666666669,0.0,13.388916666666669
451,2018-06-15,-0.07241666666666667,0.0,-0.07241666666666667
451,2018-06-16,0.0,0.0,0.0
451,2018-06-17,0.0,0.0,0.0
451,2018-06-18,14.825666666666669,0.0,14.825666666666669
451,2018-06-19,26.740583333333333,0.0,26.740583333333333
451,2018-06-20,26.86670833333333,0.0,26.86670833333333
451,2018-06-21,27.02933333333333,0.0,27.02933333333333
451,2018-06-22,31.341541666666668,0.0,31.341541666666668
451,2018-06-23,53.15991666666667,0.0,53.15991666666667
451,2018-06-24,55.558333333333316,0.0,55.558333333333316
451,2018-06-25,57.66133333333334,0.0,57.66133333333334
451,2018-06-26,57.71841666666668,0.0,57.71841666666668
451,2018-06-27,56.107499999999995,0.0,56.107499999999995
451,2018-06-28,57.550875,0.0,57.550875
451,2018-06-29,57.39733333333333,0.0,57.39733333333333
451,2018-06-30,57.015375000000006,0.0,57.015375000000006
451,2018-07-01,56.381791666666665,0.0,56.381791666666665
451,2018-07-02,56.64991666666666,0.0,56.64991666666666
451,2018-07-03,57.05654166666667,0.0,57.05654166666667
451,2018-07-04,56.8785,0.0,56.8785
451,2018-07-05,57.05125,0.0,57.05125
451,2018-07-06,57.32708333333335,0.0,57.32708333333335
451,2018-07-07,58.30354166666667,0.0,58.30354166666667
451,2018-07-08,58.276875,0.0,58.276875
451,2018-07-09,58.37174999999999,0.0,58.37174999999999
451,2018-07-10,57.71399999999999,0.0,57.71399999999999
451,2018-07-11,57.453916666666665,0.0,57.453916666666665
451,2018-07-12,57.92383333333334,0.0,57.92383333333334
451,2018-07-13,58.07183333333334,0.0,58.07183333333334
451,2018-07-14,57.73075,0.0,57.73075
451,2018-07-15,58.01020833333333,0.0,58.01020833333333
451,2018-07-16,57.433749999999996,0.0,57.433749999999996
451,2018-07-17,2.402833333333333,0.0,2.402833333333333
451,2018-07-18,11.929,0.0,11.929
451,2018-07-19,57.959125,0.0,57.959125
451,2018-07-20,58.152875000000016,0.0,58.152875000000016
451,2018-07-21,58.28920833333331,0.0,58.28920833333331
451,2018-07-22,58.36262499999999,0.0,58.36262499999999
451,2018-07-23,58.16825000000001,0.0,58.16825000000001
451,2018-07-24,57.99641666666667,0.0,57.99641666666667
451,2018-07-25,58.26379166666667,0.0,58.26379166666667
451,2018-07-26,57.81800000000001,0.0,57.81800000000001
451,2018-07-27,57.63241666666668,0.0,57.63241666666668